GW1392 Weather Reports


time (UTC)temp
F
wind
direction
speed
knots
gust
knots
rain 1hr
in
rain 24hr
in
rain mn
in
humidity
%
barometer
mb
20260507104506 46 28 0.0 0.0 0.00 0.32 0.14 95 1006.5
20260507103005 46 282 0.0 0.0 0.00 0.32 0.14 96 1006.2
20260507101504 46 282 0.0 0.0 0.00 0.32 0.14 95 1005.7
20260507100003 46 282 0.0 0.0 0.00 0.32 0.14 95 1005.8
20260507094501 46 282 0.0 0.0 0.00 0.32 0.14 94 1005.2
20260507093059 46 282 0.0 0.9 0.00 0.32 0.14 94 1005.1
20260507091557 47 330 0.0 0.0 0.00 0.32 0.14 93 1005.1
20260507090101 47 354 0.0 4.3 0.00 0.32 0.14 93 1005.2
20260507084552 47 36 0.0 3.5 0.00 0.32 0.14 94 1005.5
20260507083049 48 345 0.0 5.2 0.00 0.32 0.14 96 1004.7
20260507081546 48 42 0.0 1.7 0.00 0.32 0.14 96 1005.0
20260507080044 48 351 0.0 1.7 0.00 0.32 0.14 96 1004.6
20260507074554 49 8 0.0 2.6 0.00 0.32 0.14 96 1004.8
20260507073045 49 35 0.9 2.6 0.00 0.32 0.14 96 1004.5
20260507071540 49 356 0.0 3.5 0.00 0.32 0.14 97 1004.6
20260507070041 49 41 0.0 1.7 0.00 0.32 0.14 98 1004.4
20260507064535 49 37 0.0 1.7 0.00 0.32 0.14 98 1003.9
20260507063048 50 271 0.0 0.9 0.01 0.32 0.14 98 1003.9
20260507061534 50 295 0.0 0.9 0.01 0.32 0.14 98 1003.9
20260507060044 50 162 0.0 2.6 0.01 0.32 0.14 98 1003.7
20260507054530 50 263 0.0 7.0 0.01 0.32 0.14 98 1004.0
20260507053030 51 32 2.6 10.4 0.04 0.31 0.13 99 1003.6
20260507051529 52 38 0.0 0.9 0.10 0.31 0.13 100 1003.8
20260507050033 51 30 0.0 0.0 0.13 0.31 0.13 99 1003.5
20260507044525 50 34 0.0 6.1 0.14 0.31 0.13 99 1003.3
20260507043025 50 41 1.7 4.3 0.10 0.27 0.09 99 1003.7
20260507041520 50 203 1.7 10.4 0.05 0.21 0.03 99 1003.3
20260507040019 51 191 2.6 7.0 0.02 0.18 0.00 99 1002.9
20260507034529 51 185 2.6 9.6 0.01 0.17 0.17 99 1003.0
20260507033015 51 238 1.7 6.1 0.01 0.17 0.17 99 1003.1
20260507031514 51 197 4.3 8.7 0.00 0.16 0.16 99 1003.0
20260507030013 51 197 6.1 10.4 0.00 0.16 0.16 99 1003.1
20260507024511 50 198 6.1 12.2 0.00 0.16 0.16 99 1003.3
20260507023008 50 235 6.1 13.9 0.00 0.16 0.16 99 1003.5
20260507021507 50 202 2.6 9.6 0.00 0.16 0.16 99 1003.7
20260507020015 50 218 7.0 13.9 0.00 0.16 0.16 99 1003.9
20260507014505 50 169 10.4 19.1 0.00 0.16 0.16 99 1004.1
20260507013003 50 205 10.4 18.2 0.00 0.16 0.16 99 1004.1
20260507011610 50 198 12.2 16.5 0.00 0.16 0.16 98 1004.3
20260507010109 50 200 9.6 16.5 0.00 0.16 0.16 98 1004.2
20260507004555 50 199 11.3 15.6 0.00 0.16 0.16 98 1004.5
20260507003153 50 181 8.7 14.8 0.00 0.16 0.16 98 1004.5
20260507001554 50 202 10.4 15.6 0.00 0.16 0.16 98 1004.6
20260507000051 50 201 9.6 15.6 0.00 0.16 0.16 98 1004.4
20260506234550 50 206 11.3 17.4 0.00 0.16 0.16 98 1004.4
20260506233102 51 210 12.2 19.1 0.00 0.16 0.16 98 1004.6
20260506231545 50 186 11.3 18.2 0.00 0.16 0.16 97 1004.7
20260506230043 51 205 12.2 19.1 0.00 0.16 0.16 97 1004.9
20260506224542 51 217 13.0 19.1 0.00 0.16 0.16 97 1005.0
20260506223040 51 181 13.0 19.1 0.00 0.16 0.16 97 1005.1
20260506221538 51 186 13.0 19.1 0.00 0.16 0.16 97 1005.2
20260506220036 51 195 13.0 20.0 0.03 0.16 0.16 97 1005.2
20260506214533 51 204 13.0 20.0 0.05 0.16 0.16 97 1005.4
20260506213030 50 188 9.6 13.9 0.05 0.16 0.16 97 1005.5
20260506211530 50 165 9.6 13.0 0.08 0.16 0.16 97 1005.7
20260506210034 50 194 6.1 8.7 0.07 0.13 0.13 97 1005.9
20260506204526 50 192 7.0 8.7 0.07 0.11 0.11 96 1005.9
20260506203024 50 186 7.0 11.3 0.08 0.10 0.10 95 1005.7
20260506201525 52 198 7.0 11.3 0.08 0.08 0.08 96 1006.1
20260506200035 52 165 3.5 10.4 0.06 0.06 0.06 96 1006.4
20260506194521 52 160 2.6 9.6 0.04 0.04 0.04 95 1006.5
20260506193019 52 180 3.5 12.2 0.02 0.02 0.02 94 1006.5
20260506191518 53 221 12.2 18.2 0.00 0.00 0.00 93 1006.2
20260506190018 52 189 9.6 20.0 0.00 0.00 0.00 92 1005.9
20260506184515 52 166 15.6 20.9 0.00 0.00 0.00 92 1006.0
20260506183013 52 211 12.2 18.2 0.00 0.00 0.00 93 1006.3
20260506181516 51 203 12.2 17.4 0.00 0.00 0.00 94 1006.4
20260506180016 51 189 10.4 16.5 0.00 0.00 0.00 94 1006.6
20260506174509 51 187 6.1 10.4 0.00 0.00 0.00 94 1006.7
20260506173006 50 195 5.2 9.6 0.00 0.00 0.00 94 1006.8
20260506171504 50 196 7.0 0.0 0.00 0.00 0.00 94 1007.1
20260506170004 51 216 7.0 11.3 0.00 0.00 0.00 94 1007.4
20260506164502 51 198 8.7 13.0 0.00 0.00 0.00 94 1007.7
20260506163107 51 202 10.4 13.9 0.00 0.00 0.00 94 1008.1
20260506161600 51 193 10.4 14.8 0.00 0.00 0.00 94 1008.2
20260506160112 51 182 12.2 17.4 0.00 0.00 0.00 94 1008.5
20260506154558 51 179 8.7 13.0 0.00 0.00 0.00 93 1008.7
20260506153100 51 181 8.7 13.9 0.00 0.00 0.00 94 1008.8
20260506151555 51 163 10.4 17.4 0.00 0.00 0.00 94 1008.6
20260506150054 51 195 9.6 13.0 0.00 0.00 0.00 94 1008.3
20260506144553 51 184 7.0 12.2 0.00 0.00 0.00 94 1008.1
20260506143053 51 178 7.0 10.4 0.00 0.00 0.00 94 1008.4
20260506141608 51 175 7.0 10.4 0.00 0.00 0.00 94 1008.8
20260506140051 51 191 7.0 10.4 0.00 0.00 0.00 95 1008.8
20260506134550 51 173 7.8 11.3 0.00 0.00 0.00 94 1008.7
20260506133053 51 180 8.7 13.0 0.00 0.00 0.00 94 1008.6
20260506131548 51 178 7.8 12.2 0.00 0.00 0.00 94 1008.5
20260506130048 51 165 7.8 13.0 0.00 0.00 0.00 94 1008.5
20260506124547 51 195 7.8 11.3 0.00 0.00 0.00 94 1008.4
20260506123047 51 179 6.1 7.8 0.00 0.00 0.00 94 1008.7
20260506121554 51 172 5.2 8.7 0.00 0.00 0.00 94 1008.7
20260506120108 51 189 7.0 9.6 0.00 0.00 0.00 94 1008.8
20260506114546 51 189 6.1 10.4 0.00 0.00 0.00 94 1009.2
20260506113043 51 182 6.1 7.8 0.00 0.00 0.00 94 1009.0
20260506111541 51 176 4.3 7.8 0.00 0.00 0.00 93 1009.0
20260506110040 51 181 6.1 9.6 0.00 0.00 0.00 94 1009.0